CDT,Max TemperatureF,Mean TemperatureF,Min TemperatureF,Max Dew PointF,MeanDew PointF,Min DewpointF,Max Humidity, Mean Humidity, Min Humidity, Max Sea Level PressureIn, Mean Sea Level PressureIn, Min Sea Level PressureIn, Max VisibilityMiles, Mean VisibilityMiles, Min VisibilityMiles, Max Wind SpeedMPH, Mean Wind SpeedMPH, Max Gust SpeedMPH,PrecipitationIn, CloudCover, Events, WindDirDegrees
2012-10-1,71,58,44,50,43,36,100,68,28,29.94,29.87,29.83,10,8,0,15,4,22,0.00,3,Fog,332
2012-10-2,62,46,30,48,40,28,100,79,52,29.97,29.90,29.83,10,10,5,12,4,17,0.00,0,,55
2012-10-3,71,50,30,48,41,30,100,76,33,29.91,29.88,29.84,10,8,0,9,3,,0.00,2,Fog-Rain,51
2012-10-4,53,46,39,48,37,27,94,69,46,29.94,29.82,29.67,10,10,10,29,13,39,0.00,5,,250
2012-10-5,44,40,37,34,28,23,87,63,43,30.06,29.97,29.92,10,10,10,28,18,40,0.00,8,Rain,277
2012-10-6,46,38,30,30,24,16,81,57,34,30.23,30.17,30.06,10,10,10,17,10,24,0.00,5,,328
2012-10-7,53,38,24,27,20,18,86,54,24,30.16,30.00,29.83,10,10,10,22,8,28,0.00,0,,223
2012-10-8,53,38,24,43,29,18,93,66,38,29.82,29.67,29.54,10,10,7,18,4,29,0.02,3,Rain,217
2012-10-9,48,40,33,37,33,27,81,70,46,29.89,29.71,29.63,10,10,4,22,9,26,0.00,4,,257
2012-10-10,48,38,28,36,27,21,100,66,34,30.01,29.95,29.89,10,10,4,15,6,21,0.06,5,Rain-Snow,259
2012-10-11,46,37,28,36,28,21,100,70,39,30.34,30.10,29.88,10,9,3,17,6,28,0.02,4,Rain,306
2012-10-12,51,35,19,34,23,12,93,66,24,30.44,30.30,30.04,10,10,7,14,4,18,0.00,1,,219
2012-10-13,46,44,42,43,37,19,100,81,34,29.98,29.81,29.72,10,7,2,16,5,20,0.00,8,,99
2012-10-14,50,42,35,41,38,34,93,81,58,29.84,29.80,29.77,10,10,7,9,6,,0.00,5,,42
2012-10-15,55,40,24,39,34,25,100,78,38,29.93,29.86,29.75,10,9,0,10,3,,0.00,2,Fog-Rain,55
2012-10-16,60,51,42,46,43,39,100,86,59,29.74,29.53,29.41,10,8,0,9,5,,0.00,4,Fog-Rain,48
2012-10-17,48,44,39,45,44,39,100,93,87,29.41,29.24,29.13,10,3,0,17,7,24,0.00,8,Fog-Rain,54
2012-10-18,53,47,41,46,44,39,100,88,72,29.38,29.21,29.12,10,7,0,9,2,,0.00,7,Fog-Rain,240
2012-10-19,51,43,35,45,41,34,100,87,58,29.72,29.60,29.42,10,8,0,13,6,18,0.01,6,Fog-Rain,51
2012-10-20,51,40,28,43,35,27,100,89,67,29.81,29.76,29.71,10,6,0,7,2,,0.00,4,Fog,106
2012-10-21,51,40,28,45,38,28,100,88,67,29.95,29.87,29.82,10,7,0,12,2,16,0.00,4,Fog,52
2012-10-22,51,44,37,45,42,36,100,87,76,30.07,30.02,29.95,10,8,0,15,5,23,0.00,6,Fog,58
2012-10-23,46,45,44,45,44,43,100,93,87,29.99,29.92,29.85,10,7,2,17,14,26,0.00,8,Rain,61
2012-10-24,56,54,52,53,53,52,95,92,88,29.86,29.83,29.82,10,6,5,4,1,,0.00,7,,110
2012-10-25,37,35,33,34,32,28,91,84,76,30.00,29.86,29.72,10,10,7,18,12,29,0.21,8,Rain-Snow,284
2012-10-26,38,35,32,29,24,20,81,65,49,30.29,30.20,30.01,10,10,10,18,10,24,0.00,7,,262
2012-10-27,43,32,23,23,20,17,87,64,37,30.34,30.31,30.28,10,10,10,15,5,20,0.00,5,,257
2012-10-28,43,34,25,28,25,22,93,74,45,30.34,30.32,30.29,10,10,10,8,1,9,0.00,7,,299
2012-10-29,47,37,28,36,29,22,91,73,38,30.36,30.33,30.30,10,10,10,10,3,17,0.00,5,,78
2012-10-30,41,31,21,36,25,19,99,70,41,30.30,30.21,30.07,10,10,10,16,5,22,0.00,2,,52
2012-10-31,49,31,13,23,15,10,93,52,21,30.08,29.99,29.91,10,10,10,8,4,,0.00,2,,305